GFSNE_prec_cloud_021.txt.gz
Cloud_Cover
68 79 99 100 100 100 100 92 95 100 35 52 6 80 34 89 100 100 100 100 100 100 67 100 100 91 100 100 79 5 72 94 15 99 100 100 100 100
92 87 75 79 99 100 100 100 100 100 100 40 76 98 100 100 100 94 100 100 100 100 100 100 100 100 100 57 5 5 15 100 81 49 33 100 100 100
5 7 4 4 58 95 100 100 100 100 93 17 14 100 77 100 100 100 100 100 99 100 100 100 100 100 100 100 89 10 12 8 100 55 5 16 100 100
93 70 23 0 3 5 77 100 96 82 23 54 69 96 100 100 100 100 100 100 100 100 100 100 100 100 100 100 100 72 5 5 9 99 80 5 2 34
94 42 4 0 0 0 6 5 5 5 11 6 21 100 98 100 100 100 59 100 100 100 100 77 100 100 98 100 100 52 59 6 42 7 5 81 52 5
1 2 0 0 0 2 5 5 19 5 8 25 13 74 69 98 100 100 86 2 72 100 100 100 99 96 7 55 100 100 72 100 26 5 5 0 5 6
5 5 0 4 72 40 96 53 13 90 83 51 43 26 56 47 12 27 10 5 7 28 100 100 99 54 27 5 92 100 100 100 99 64 5 3 0 5
1 0 1 5 59 47 100 87 100 100 94 13 20 12 82 62 16 5 5 5 5 42 100 92 98 5 5 23 70 16 100 41 44 100 100 100 94 5
5 2 5 5 5 6 73 98 91 100 100 98 97 40 44 31 34 33 6 5 5 5 5 5 18 8 5 5 5 43 38 100 76 14 5 84 17 5
36 70 10 5 71 59 56 39 5 6 21 25 33 5 50 56 96 87 60 61 86 24 43 44 64 5 5 5 0 0 5 39 40 98 20 5 16 2
26 49 50 16 20 100 100 76 9 7 81 97 94 100 100 73 100 100 91 100 100 62 5 5 9 5 5 5 5 4 0 0 5 5 5 5 1 0
88 100 99 82 100 99 100 64 89 24 40 7 5 5 9 17 100 96 86 85 98 100 50 51 5 8 7 6 5 5 5 5 0 2 0 0 0 5
100 100 100 100 100 100 97 93 82 52 93 77 84 97 96 98 100 100 100 88 100 92 100 96 15 33 27 44 13 5 14 87 88 91 98 49 5 5
100 100 100 100 100 100 100 100 100 100 100 100 100 100 100 100 100 100 100 100 98 91 100 98 94 48 42 61 100 100 96 69 76 73 73 41 5 5
100 100 100 100 100 100 100 100 100 100 100 100 100 100 100 100 100 100 96 80 99 100 100 100 100 100 100 97 100 100 100 100 87 59 99 100 96 22
100 100 100 100 100 100 100 100 100 100 100 100 100 100 100 100 100 91 100 95 86 99 76 81 98 98 97 100 100 100 100 92 86 84 92 100 85 30
100 100 100 100 100 100 100 100 100 100 100 99 94 100 99 98 100 100 99 92 84 60 57 63 46 66 74 99 100 100 100 100 88 67 97 96 100 100
99 100 100 100 100 100 100 100 100 100 96 100 100 100 100 98 94 90 80 94 98 70 57 87 84 89 95 100 100 100 100 100 100 100 99 100 88 65
71 100 100 100 100 100 100 100 100 100 100 100 100 100 98 88 94 91 98 100 100 94 98 100 88 86 100 100 96 89 88 92 84 65 61 76 100 100
25 91 100 100 100 100 100 100 100 100 100 100 100 100 100 100 88 87 96 100 100 91 98 99 89 99 93 94 88 60 44 70 83 56 98 96 100 100
40 32 85 100 100 100 100 100 100 100 100 100 100 100 100 100 95 79 69 70 74 78 67 62 25 83 100 99 99 93 67 83 46 77 72 95 96 100
58 58 56 100 100 100 100 100 100 100 100 100 100 100 100 100 100 99 93 96 66 59 45 19 42 98 100 98 100 97 61 68 33 34 7 21 36 90
17 11 60 66 100 100 100 100 100 100 100 100 100 100 100 100 100 96 90 94 73 44 44 100 62 93 65 67 79 100 73 66 64 84 72 18 5 5

GFSNE_prec_cloud_027.txt.gz
Cloud_Cover
3 0 0 0 5 11 55 42 98 93 26 54 17 88 67 9 5 0 0 5 5 78 100 100 100 100 100 100 100 100 98 5 5 5 100 100 100 100
39 0 3 5 12 5 49 93 98 90 95 9 5 90 93 42 5 4 5 5 5 5 87 100 100 100 100 100 100 100 87 100 29 54 5 100 100 100
100 5 5 14 5 5 5 5 5 5 5 5 5 4 90 100 20 5 0 5 5 5 17 95 100 100 100 100 100 100 100 97 100 51 36 80 100 100
6 5 5 5 0 5 5 5 5 4 5 5 5 5 5 6 6 5 5 5 19 100 12 100 100 100 100 100 100 100 100 100 100 100 98 100 99 100
32 8 5 3 5 5 5 5 11 74 95 97 6 5 5 5 5 4 0 5 4 61 100 100 100 100 100 100 100 100 100 100 100 100 100 90 24 93
54 5 5 5 5 5 5 4 73 100 100 100 100 94 72 17 5 3 2 0 5 5 94 100 100 100 100 98 31 99 100 100 100 100 100 98 46 6
5 5 5 16 91 70 55 23 6 75 100 100 100 100 77 42 5 5 5 5 4 5 14 100 100 100 100 100 100 100 99 100 100 100 100 100 93 25
93 56 5 5 5 11 6 78 97 95 100 100 100 100 63 98 41 5 5 5 5 5 5 13 100 100 100 100 100 100 100 100 100 100 100 70 100 100
7 15 5 5 5 5 89 100 87 94 100 100 100 98 98 5 11 5 5 5 5 5 5 9 29 100 100 100 100 100 100 100 100 100 100 100 72 82
5 5 18 55 47 99 100 100 100 94 100 100 100 97 86 30 31 5 16 61 91 25 9 98 55 72 100 100 100 100 100 100 96 100 100 92 93 47
5 5 99 99 96 100 100 100 100 100 96 45 73 75 78 92 87 100 100 100 97 33 9 21 50 21 74 100 100 89 100 100 100 34 5 73 13 2
5 5 65 99 100 100 100 100 100 100 99 100 100 87 11 5 5 5 55 93 95 52 6 91 92 13 6 70 92 95 37 42 65 100 100 30 8 1
82 73 74 99 100 100 100 100 100 100 100 100 100 96 91 85 56 20 19 29 62 48 78 89 28 75 69 14 5 38 9 13 20 24 75 46 5 5
100 82 99 100 100 100 100 100 100 100 100 100 100 100 100 100 100 98 96 100 100 100 100 100 74 100 97 85 75 11 99 67 37 10 19 6 5 6
5 57 100 100 100 100 100 100 100 100 100 100 100 100 100 100 100 100 100 100 100 100 100 100 96 96 100 92 37 20 9 6 86 89 72 22 15 86
5 5 5 61 100 100 100 100 100 100 100 100 100 100 100 100 100 100 100 100 98 94 95 100 100 100 100 100 76 36 50 82 43 61 90 90 84 98
6 49 35 55 80 100 100 100 100 100 100 100 100 100 100 100 100 100 100 100 100 99 94 94 100 100 100 100 99 80 74 56 17 54 86 82 69 38
25 89 95 86 90 100 100 100 100 100 100 100 100 100 100 100 100 100 100 100 100 98 99 99 100 100 100 100 98 99 100 96 95 98 100 100 100 40
40 74 100 100 94 100 100 100 100 100 100 100 100 100 100 100 100 100 100 89 100 100 99 98 100 100 98 100 98 98 98 100 100 100 100 100 86 28
64 75 100 100 93 93 100 100 100 100 100 100 100 100 100 99 90 87 100 100 100 91 96 83 76 77 68 97 95 90 57 62 85 92 96 89 66 48
59 62 79 100 80 78 98 84 100 100 100 100 100 100 100 97 85 91 83 75 88 96 76 74 86 56 67 56 70 77 86 99 54 55 72 94 91 95
68 58 18 72 73 73 98 96 72 100 100 100 100 100 100 100 100 100 100 100 99 84 56 98 74 32 59 8 38 96 90 98 62 5 12 17 25 60
63 30 57 63 68 66 70 65 68 66 100 100 100 100 100 100 100 100 100 100 100 100 100 100 100 90 71 84 70 86 100 92 78 29 19 9 5 5

GFSNE_prec_cloud_030.txt.gz
Cloud_Cover
99 87 25 30 5 75 93 98 68 6 1 4 4 5 29 100 82 5 5 0 0 0 0 0 26 99 100 100 100 97 28 83 60 60 3 18 15 100
51 5 26 5 4 5 5 5 5 5 68 3 4 5 5 5 32 63 5 4 1 0 0 0 3 100 100 100 100 100 100 100 100 100 38 55 93 56
61 42 79 5 5 5 5 5 5 5 35 9 5 0 1 5 5 5 21 5 3 0 0 0 1 12 100 100 100 100 96 100 100 100 98 67 100 85
88 6 5 5 5 4 3 5 5 5 20 97 9 5 5 2 97 25 0 0 1 2 0 0 5 5 90 100 100 99 100 99 100 100 100 95 100 7
5 5 5 5 5 5 5 5 5 5 39 93 71 11 5 5 6 13 5 0 0 0 0 0 5 7 100 100 100 100 100 100 100 100 100 100 100 100
5 5 5 43 72 57 43 93 79 73 41 39 49 90 75 12 98 100 64 5 0 0 0 0 5 5 39 100 100 100 100 100 100 100 100 100 100 100
10 34 16 38 98 100 96 98 100 96 99 100 100 100 100 100 100 100 93 5 2 0 0 3 4 87 27 100 100 100 100 100 100 100 100 100 100 100
10 26 5 5 5 91 74 100 100 100 100 100 100 100 100 100 100 100 100 98 5 2 5 5 4 16 100 80 100 100 100 100 100 100 100 100 100 100
5 5 11 48 27 38 17 77 100 100 100 99 100 97 99 100 100 86 85 89 5 5 5 5 5 5 5 100 100 100 100 100 100 100 100 100 100 100
5 8 51 59 37 100 94 100 100 100 100 100 100 71 58 100 100 100 88 94 98 74 7 94 18 5 5 6 98 100 100 100 100 100 100 100 100 100
5 5 98 100 79 100 100 100 100 100 100 100 100 98 88 100 100 98 95 100 96 74 31 95 30 5 5 5 10 90 76 100 98 100 100 100 100 100
10 16 31 100 100 100 100 100 100 100 100 100 100 99 85 99 91 43 6 99 100 94 19 39 5 38 29 60 26 39 91 52 100 100 100 100 100 100
74 46 51 98 100 100 100 100 100 100 100 100 100 100 100 100 100 100 65 16 36 78 87 32 57 100 100 100 18 6 27 100 84 59 100 100 100 100
8 5 77 100 100 100 100 100 100 100 100 100 100 100 100 100 100 100 100 100 100 100 100 100 98 98 94 99 65 62 30 84 72 88 100 90 86 38
5 10 40 8 7 13 100 100 100 100 100 100 100 100 100 100 100 100 100 100 100 100 100 100 100 100 100 100 98 100 100 99 90 68 100 49 38 74
5 5 8 5 5 6 68 99 100 100 100 100 100 100 100 100 100 100 100 100 100 100 100 100 100 100 100 100 99 93 72 95 88 99 99 98 98 98
28 37 16 14 5 75 82 90 100 100 100 100 100 100 100 100 100 100 100 100 100 100 100 100 100 100 100 100 91 79 86 75 41 58 71 42 25 32
5 79 100 100 88 96 100 89 100 100 100 100 100 100 100 100 100 83 100 100 100 100 100 100 100 100 100 89 88 93 75 57 76 100 55 99 76 99
13 58 100 100 99 64 98 90 94 100 100 100 100 100 100 100 94 98 97 98 100 100 100 100 100 100 100 100 99 100 96 100 100 100 100 100 85 66
33 62 95 100 93 60 93 97 73 96 100 100 100 100 100 100 95 97 90 98 71 93 100 100 100 100 100 100 92 87 80 27 21 40 64 65 80 97
6 14 57 74 74 27 89 100 95 49 100 100 100 100 100 97 100 98 87 64 62 66 60 72 84 81 96 92 87 72 59 83 69 17 28 12 5 64
55 9 5 9 66 60 91 100 90 68 46 100 100 100 100 100 100 100 100 98 100 98 85 64 90 78 98 82 52 79 96 99 99 66 5 5 5 5
65 30 51 46 46 66 23 82 59 94 5 19 99 100 100 100 100 100 100 100 100 100 100 100 100 100 72 90 98 96 100 100 100 67 8 69 6 5

GFSNE_prec_cloud_033.txt.gz
Cloud_Cover
5 5 5 5 5 3 5 7 68 66 7 5 5 5 5 5 5 5 5 5 5 5 5 3 0 0 0 88 100 100 100 84 95 11 56 18 5 5
31 5 13 28 5 5 5 48 76 77 60 5 5 5 8 5 5 5 5 5 5 5 5 5 0 0 0 24 100 100 100 100 100 79 100 74 12 5
82 71 5 5 22 71 100 66 19 22 69 5 49 63 65 94 62 6 20 5 5 5 2 2 1 0 0 0 26 100 100 100 100 100 100 100 77 82
81 78 5 42 69 89 100 100 100 100 100 99 91 100 100 100 100 100 87 90 52 5 0 0 0 0 0 1 1 97 100 100 100 100 100 96 100 100
70 5 5 71 84 95 100 100 100 100 100 100 100 100 100 100 100 100 100 100 94 5 0 4 0 0 0 2 4 43 100 100 100 100 100 100 100 100
5 5 30 69 74 97 100 100 100 100 100 100 100 100 100 100 100 100 100 100 100 99 5 0 5 0 4 4 5 5 99 96 84 100 100 100 100 100
5 3 5 12 58 91 100 100 100 100 100 100 100 100 100 100 100 100 100 100 97 100 80 5 5 5 75 11 5 17 100 100 99 100 100 100 100 100
0 5 5 5 70 96 100 93 92 100 100 100 100 100 100 100 100 100 100 100 100 100 100 99 29 5 25 94 83 97 100 100 100 100 100 100 100 100
5 7 59 99 100 100 100 93 100 99 100 100 100 100 100 100 100 100 100 100 100 100 100 100 94 18 5 9 100 100 100 100 100 100 100 100 100 100
16 85 100 100 100 100 100 100 100 100 100 100 100 100 100 100 100 100 100 100 100 99 100 100 99 100 61 8 11 100 100 100 100 100 100 100 100 100
98 100 100 100 100 100 100 100 100 100 100 100 92 92 100 100 100 100 100 100 100 100 100 100 96 100 99 30 5 10 100 100 100 100 100 100 100 100
100 100 100 100 100 100 100 100 100 100 100 100 100 96 100 100 100 100 100 100 100 100 100 97 100 98 97 66 5 5 5 53 100 100 100 100 100 100
100 78 43 100 100 100 99 100 100 100 100 100 100 100 100 100 100 100 100 100 100 98 100 99 100 100 100 99 95 5 5 5 5 69 100 100 100 100
100 44 42 83 81 42 81 100 98 100 100 100 100 100 100 100 100 100 100 100 100 97 100 100 100 100 100 100 100 89 44 33 28 90 24 67 100 100
88 6 5 5 5 5 18 95 88 100 100 100 100 100 100 100 100 100 100 100 100 100 100 100 100 100 100 100 100 99 100 94 100 59 15 5 36 99
7 3 4 5 5 16 5 54 83 100 100 100 100 100 100 100 100 100 100 100 100 100 100 100 100 100 100 100 100 100 100 100 100 96 100 97 96 88
4 5 5 5 1 4 5 5 90 100 100 100 100 100 100 100 100 100 100 100 100 100 100 100 100 100 100 100 100 100 100 100 100 96 73 94 100 87
5 5 5 5 5 2 5 5 31 96 100 100 100 100 100 100 100 100 100 100 100 100 100 100 100 100 100 100 99 100 100 100 100 99 100 100 99 95
21 9 78 20 5 4 4 4 5 7 97 100 100 100 100 100 100 100 100 100 100 100 100 100 100 100 100 100 100 100 100 100 100 100 100 99 99 100
14 5 52 88 32 5 2 4 5 5 23 99 100 100 100 100 100 100 100 100 99 100 100 96 94 98 100 100 100 99 97 86 87 99 100 99 99 74
100 71 70 43 64 5 6 5 41 5 5 49 100 100 100 100 100 100 100 100 100 95 81 100 98 98 99 87 90 99 100 99 99 91 71 81 90 98
96 98 66 55 75 74 59 48 7 7 5 5 56 100 98 97 100 100 100 100 100 100 100 100 96 100 99 100 100 76 97 97 93 92 31 28 95 100
99 90 98 82 82 86 29 5 6 25 5 5 5 44 92 91 100 100 100 100 100 100 100 100 100 100 99 99 93 100 100 85 87 99 99 12 7 10

GFSNE_prec_cloud_036.txt.gz
Cloud_Cover
69 67 100 100 100 100 100 100 90 87 66 56 18 63 91 91 100 96 81 24 11 22 5 5 5 5 1 0 0 99 98 100 92 100 100 96 2 5
92 100 100 100 100 100 100 100 100 100 66 66 93 100 100 100 100 100 100 47 5 3 3 3 5 15 54 0 0 42 82 100 100 100 100 89 22 5
96 100 100 100 100 100 100 100 100 100 100 25 100 100 100 100 100 100 100 100 100 97 39 5 0 4 40 17 0 0 81 100 100 100 100 98 76 28
100 100 100 100 100 100 100 100 100 100 100 92 100 100 100 100 100 100 100 100 100 100 100 27 0 0 2 18 2 0 0 65 100 100 100 100 93 79
84 97 65 76 44 21 80 100 100 100 100 100 100 100 100 100 100 100 100 100 100 100 19 6 0 0 0 5 5 1 3 11 28 99 100 95 99 71
33 8 5 5 5 5 34 99 100 100 100 100 100 100 100 100 100 100 100 100 100 100 100 78 36 2 0 0 0 0 2 6 94 100 100 100 96 98
5 5 4 5 5 52 85 95 100 100 100 100 100 100 100 100 100 100 100 100 100 99 100 100 100 98 85 7 3 5 82 38 100 100 100 100 100 100
5 5 5 10 100 52 100 95 81 100 100 100 100 100 100 100 100 100 100 100 100 100 100 100 100 90 100 100 59 5 52 100 100 100 100 100 100 100
5 5 18 78 100 100 100 83 99 100 98 98 100 100 100 100 100 100 100 100 100 100 100 100 100 100 91 100 20 49 100 96 96 100 100 100 100 100
18 47 95 100 100 86 100 100 100 100 100 100 100 100 100 100 100 100 100 100 99 100 100 100 100 100 100 71 45 2 99 100 89 100 100 100 100 100
94 98 93 82 99 70 100 100 100 100 100 100 100 89 27 35 78 100 99 100 100 100 100 100 100 91 92 100 96 6 5 99 81 100 100 100 100 100
98 100 100 39 9 100 100 100 100 100 100 100 100 100 100 100 90 100 100 100 100 100 100 100 100 100 100 97 100 94 11 34 100 99 100 100 100 100
99 98 100 17 18 94 67 100 96 100 100 100 100 100 100 100 100 100 100 100 100 100 100 100 100 100 100 100 96 84 91 52 50 78 88 96 100 100
96 99 81 5 5 5 25 8 59 98 100 100 100 100 100 100 100 100 100 100 100 100 100 98 100 100 100 100 100 97 92 100 89 7 54 81 100 91
100 13 5 5 5 2 4 5 22 76 100 100 100 100 100 100 100 100 100 100 94 98 97 100 100 100 100 100 100 93 99 99 96 98 75 81 66 40
99 31 20 4 2 2 15 5 5 36 100 100 100 100 100 100 100 100 100 100 100 100 100 100 100 100 100 100 100 100 100 100 87 78 82 95 90 86
7 96 100 93 18 5 5 5 5 5 62 100 100 100 100 100 100 100 100 100 100 100 100 100 100 100 100 100 100 100 100 100 100 100 100 98 99 98
57 99 100 100 100 39 5 5 5 5 5 54 100 100 100 100 100 100 100 100 100 100 100 100 100 100 100 100 100 100 100 100 100 99 100 100 99 77
92 100 100 100 99 90 14 5 5 5 5 5 62 100 100 100 100 100 100 100 100 100 100 100 100 100 100 100 100 100 100 100 100 100 100 100 100 100
86 100 100 100 100 95 22 8 7 19 14 5 8 93 100 100 100 100 100 100 100 100 100 100 100 100 100 100 100 100 100 100 100 100 100 100 88 64
100 100 100 100 100 100 99 100 92 94 12 7 60 81 100 100 100 100 100 100 100 100 100 100 100 97 100 100 100 100 100 100 97 98 94 100 100 100
100 100 100 100 100 100 100 100 99 100 98 5 5 84 96 100 87 100 100 100 100 100 100 100 100 100 96 99 100 95 97 89 64 89 96 93 98 100
100 100 100 100 100 100 100 100 100 100 100 30 5 19 84 92 76 79 99 100 80 51 100 100 100 100 100 100 98 100 95 88 100 97 80 53 5 5

GFSNE_prec_cloud_039.txt.gz
Cloud_Cover
69 78 15 89 97 71 100 100 28 21 14 24 88 94 100 92 12 56 48 17 13 5 5 5 0 0 0 5 4 4 0 3 98 100 100 100 100 100
91 100 92 97 96 99 99 89 100 66 11 70 79 100 87 98 69 54 44 9 6 5 16 5 4 5 1 1 5 5 0 0 71 100 100 100 100 100
99 100 92 100 83 100 100 100 100 96 47 1 22 78 93 92 100 88 80 68 45 18 24 85 50 99 5 0 4 5 5 0 3 96 100 100 100 100
89 99 100 99 51 59 41 10 8 13 82 96 13 100 97 100 98 97 100 100 82 100 98 94 100 100 50 0 0 40 6 0 0 10 12 41 100 100
100 94 88 41 5 5 43 5 10 62 98 99 61 99 94 100 83 86 90 100 100 99 74 20 19 17 44 0 0 0 93 4 0 18 96 100 100 100
86 26 36 19 5 5 5 26 75 100 100 87 85 100 100 49 99 85 90 84 100 100 100 100 100 98 30 0 0 0 9 5 4 5 100 99 100 100
6 42 26 5 5 4 14 98 100 100 100 100 100 100 100 100 96 97 100 100 98 91 68 66 100 100 96 85 5 5 5 5 85 20 100 100 100 100
53 22 5 30 95 22 86 68 44 100 100 100 100 100 100 100 100 100 100 100 98 100 100 100 100 100 100 97 74 100 41 4 60 100 100 100 100 100
78 70 46 42 100 84 86 92 100 100 100 100 99 100 100 100 99 94 99 100 100 100 100 100 100 100 100 100 79 10 5 0 63 73 100 100 100 100
99 93 84 88 100 5 7 96 100 100 100 99 100 100 100 94 81 85 97 66 91 98 92 69 100 100 39 5 7 5 2 0 47 98 100 100 100 100
91 92 70 82 65 3 5 100 99 100 100 99 62 95 74 6 5 84 98 100 100 100 100 93 100 100 100 39 52 5 5 4 14 100 100 100 100 100
93 92 95 5 5 5 17 88 100 96 26 55 100 100 100 100 99 100 100 100 100 100 100 99 100 100 100 78 49 7 7 5 3 100 100 100 100 100
97 99 100 42 5 5 21 64 86 5 71 98 100 98 100 100 99 91 92 99 100 100 100 100 100 100 100 86 97 78 12 27 6 5 100 100 100 100
99 100 96 5 5 5 5 5 1 25 98 100 100 100 100 97 100 98 100 100 100 95 100 100 100 89 93 100 89 40 25 13 74 11 15 100 100 100
100 74 6 5 5 5 5 5 5 95 76 100 100 100 100 100 100 100 100 100 100 100 100 96 79 83 81 89 100 100 100 80 15 26 52 21 100 100
100 98 27 11 26 47 83 100 100 97 47 94 100 100 100 100 100 100 100 100 100 100 100 100 97 79 100 96 81 99 100 88 60 47 9 54 35 66
35 48 99 97 100 100 100 100 100 100 91 7 99 100 100 100 100 99 100 100 100 100 100 100 100 100 100 95 100 100 100 100 99 79 36 85 53 54
64 98 100 100 100 100 100 100 100 100 94 80 92 100 100 100 100 100 100 100 100 100 100 100 100 100 100 100 99 100 100 100 100 87 56 80 68 27
91 97 100 100 100 100 100 100 100 100 24 100 100 100 100 100 100 100 100 100 100 100 100 100 100 100 100 100 100 100 100 100 100 100 91 100 100 100
95 100 100 100 100 100 100 100 100 100 100 100 100 100 100 100 100 100 100 100 100 100 100 100 100 100 100 100 100 100 100 100 100 100 97 93 96 90
100 100 100 100 100 100 97 99 100 100 85 97 100 100 100 100 100 100 100 100 100 100 100 100 100 100 100 93 100 100 100 100 100 97 98 90 84 75
100 100 100 100 100 100 98 100 95 100 100 100 100 100 100 100 100 100 100 100 100 99 100 100 100 100 100 100 100 100 100 100 100 100 100 89 82 100
100 100 100 100 100 100 100 100 100 100 100 100 100 100 100 100 100 100 100 91 100 100 88 100 100 100 100 100 100 100 99 100 100 96 95 99 100 88

GFSNE_prec_cloud_042.txt.gz
Cloud_Cover
29 5 5 66 100 97 47 29 68 5 5 5 2 0 71 7 5 4 5 4 2 0 0 0 0 0 7 5 5 3 2 4 5 5 4 75 100 100
5 22 93 96 88 94 31 4 89 100 44 5 5 95 98 4 0 0 0 0 0 0 0 1 1 1 35 19 5 2 0 0 3 5 4 21 100 100
23 68 66 98 96 92 87 100 71 18 5 5 0 2 5 0 0 0 0 0 0 4 5 5 4 5 5 6 89 5 0 0 0 5 4 4 100 100
5 76 27 99 25 8 3 0 2 3 0 0 0 4 5 0 5 5 5 5 1 2 3 5 1 5 69 100 100 12 0 0 0 5 5 12 100 84
37 84 54 3 0 5 5 5 1 4 5 5 5 5 5 5 5 5 5 7 24 5 28 18 81 98 100 100 10 5 0 0 0 3 5 5 94 100
4 6 5 4 5 5 5 5 3 5 5 5 5 5 5 16 84 67 37 5 5 5 5 3 5 98 99 100 85 5 2 0 2 2 5 5 95 100
0 5 5 5 5 5 5 5 5 5 5 11 40 55 67 9 5 56 74 74 4 5 5 4 67 59 87 99 100 100 61 68 65 8 98 46 94 100
1 5 5 5 58 21 15 5 35 7 10 97 99 99 12 98 97 5 32 23 38 79 29 2 88 8 80 100 100 100 100 100 99 5 25 100 100 100
5 8 5 20 5 5 3 0 0 5 82 100 99 96 87 5 9 6 5 5 5 5 8 4 100 5 96 100 100 100 98 99 6 0 0 84 100 100
32 51 5 56 5 5 0 0 1 5 5 97 100 95 54 5 5 26 32 23 7 23 96 66 73 6 61 37 99 25 40 5 0 0 0 95 100 100
5 5 73 67 5 5 5 4 5 4 5 15 5 5 42 84 98 98 83 99 76 12 90 98 87 21 24 22 65 5 6 5 4 1 4 100 100 100
5 16 5 5 5 5 4 5 5 5 4 3 5 6 34 99 100 98 95 100 94 57 100 100 100 93 83 100 100 89 9 5 8 3 5 100 100 100
5 5 47 81 5 4 5 5 5 5 2 5 6 5 98 100 79 13 85 100 100 100 100 96 100 100 100 100 100 100 100 44 67 9 70 100 100 100
5 53 6 5 5 5 2 2 5 5 8 15 5 47 80 100 98 84 44 100 100 100 100 99 87 100 100 100 100 100 100 96 86 66 5 57 100 100
5 68 90 63 5 5 5 5 44 5 52 5 5 5 7 94 98 96 28 100 100 97 100 100 100 92 77 100 100 100 100 100 91 12 66 5 90 100
5 40 90 66 58 66 33 57 57 9 62 34 6 5 5 7 94 100 90 91 100 100 100 100 100 100 100 74 100 100 100 100 100 53 28 90 49 100
99 26 88 77 100 88 33 62 64 5 9 11 5 10 27 5 70 100 100 99 100 100 100 100 100 100 100 100 100 99 100 100 100 100 93 100 100 46
75 5 58 50 92 99 38 6 10 7 27 5 38 58 100 67 15 96 100 100 95 100 86 98 100 100 100 100 100 100 100 100 100 100 82 85 100 72
92 5 26 69 100 99 76 59 41 10 5 56 58 26 99 100 52 60 100 100 96 100 100 100 100 100 100 100 100 100 100 100 100 100 100 100 100 88
89 84 67 86 100 100 98 100 88 16 7 52 5 64 89 98 89 88 55 100 100 100 100 100 95 100 100 100 100 100 100 97 98 100 100 100 100 100
75 95 54 99 100 100 100 100 98 59 18 5 10 78 63 98 7 100 80 39 100 100 100 94 100 100 100 100 100 100 100 100 100 100 100 100 100 100
52 11 73 93 100 100 100 100 100 96 91 87 100 27 65 49 40 90 99 87 14 100 100 100 97 100 99 100 100 100 100 100 100 100 100 100 100 100
100 91 72 61 83 100 100 100 100 100 100 100 100 70 82 5 61 100 100 100 30 21 96 100 42 100 96 100 100 100 100 100 100 100 100 100 100 100

GFSNE_prec_cloud_045.txt.gz
Cloud_Cover
6 23 90 90 100 100 100 100 100 20 5 5 5 5 5 5 5 4 0 0 0 0 0 0 0 0 5 6 74 100 100 100 99 5 5 5 5 5
90 79 75 66 100 100 100 94 100 79 5 1 3 4 3 4 2 0 0 0 0 0 0 0 0 5 4 5 5 17 96 89 89 12 5 5 5 5
100 100 100 100 100 100 98 25 68 81 4 0 0 0 0 0 0 0 0 0 0 0 0 0 0 0 1 3 1 3 5 93 16 5 0 4 1 5
100 100 100 100 100 99 5 0 0 2 1 0 0 0 0 0 0 0 0 0 0 5 5 5 47 54 100 99 65 36 48 78 5 1 0 0 2 5
100 100 6 5 4 0 0 0 1 5 2 3 1 1 0 0 1 5 5 5 5 2 1 0 0 0 0 56 60 96 100 5 5 1 0 0 3 5
100 75 81 100 7 5 5 0 2 2 5 5 5 5 5 5 5 8 50 5 5 1 2 0 4 1 7 5 68 93 100 100 13 5 2 5 5 5
100 100 100 24 67 4 3 3 4 5 5 5 5 47 64 57 94 92 82 5 4 0 4 4 0 0 3 5 26 98 100 93 99 24 12 5 5 10
100 100 55 5 5 5 5 5 5 4 5 5 5 23 8 98 68 5 5 5 59 0 5 5 4 5 0 2 6 100 100 100 100 100 100 2 6 100
100 5 100 37 5 5 5 5 0 0 1 5 56 85 100 92 7 5 5 21 96 8 86 50 5 5 1 0 5 82 100 100 100 100 99 1 2 76
100 35 5 54 5 5 5 4 2 0 0 3 93 35 21 49 89 98 88 98 46 6 89 95 5 5 5 5 8 63 100 53 73 40 5 0 6 100
82 5 2 5 5 5 5 5 4 2 0 4 0 5 5 5 99 100 98 88 84 7 27 70 5 5 5 65 83 92 67 100 100 21 5 3 63 100
8 3 5 25 5 5 5 5 7 3 4 2 0 2 5 5 41 82 100 99 100 84 99 100 97 84 99 92 100 94 97 99 44 5 5 3 99 100
5 5 5 66 26 55 49 5 5 2 5 5 5 4 4 5 5 12 84 100 100 93 39 100 99 96 88 100 100 100 100 98 60 10 5 7 100 100
5 5 5 8 19 5 16 20 5 5 12 5 5 5 5 5 5 5 45 26 94 100 83 100 100 75 96 100 100 100 100 100 32 29 5 83 100 100
5 84 5 5 5 30 11 5 5 31 5 36 10 5 5 5 5 77 51 53 63 90 100 100 100 100 100 100 100 100 100 100 49 26 26 6 98 100
10 100 21 12 8 6 47 75 65 43 5 55 5 5 5 5 5 38 100 98 83 99 100 100 100 99 100 52 100 100 100 100 100 21 8 19 95 100
45 82 95 92 50 100 90 82 88 56 18 5 5 5 5 5 5 5 86 100 100 94 100 100 100 100 100 96 93 100 99 100 100 84 24 51 81 100
94 84 84 66 39 97 100 100 74 79 86 42 5 5 32 38 5 5 6 98 99 82 100 100 100 100 100 100 99 100 100 100 98 85 62 45 86 100
73 63 73 5 37 94 87 98 100 100 100 98 63 7 46 5 18 7 5 22 100 100 62 100 100 100 100 100 100 100 94 100 100 99 81 70 83 100
100 100 90 23 5 13 80 97 100 100 100 100 99 45 57 59 63 18 43 43 41 100 100 96 100 100 100 100 98 100 100 100 100 100 100 100 100 100
100 100 100 92 5 82 83 94 100 100 100 99 86 74 66 61 10 23 18 24 6 54 100 100 100 100 100 99 100 100 100 100 100 100 100 100 100 100
100 100 100 93 20 92 99 97 98 100 100 100 85 81 96 49 11 55 58 80 20 5 38 100 100 100 100 100 100 100 100 100 100 100 100 100 100 100
100 100 100 76 77 78 100 93 68 100 100 100 84 66 67 5 5 68 62 64 49 5 5 5 100 100 100 100 100 100 100 100 100 100 100 100 100 100

GFSNE_prec_cloud_048.txt.gz
Cloud_Cover
5 5 5 5 53 43 81 82 94 70 81 17 5 5 5 4 2 1 0 0 0 0 0 0 4 5 72 100 100 100 100 100 100 100 100 100 99 99
18 63 85 86 93 93 61 98 93 100 48 5 4 0 0 0 0 0 0 0 0 0 0 0 3 5 22 23 38 46 86 85 98 100 98 100 97 99
78 76 97 100 97 100 100 100 100 88 5 2 0 0 0 0 0 0 0 0 0 0 4 5 5 5 0 5 2 4 5 5 10 54 53 100 91 6
100 100 100 100 100 100 100 100 100 9 8 0 0 0 0 0 0 0 0 0 3 5 5 5 0 4 0 2 5 1 1 5 5 5 5 77 53 5
100 100 100 100 100 100 100 99 16 0 0 5 2 0 0 0 3 5 5 5 3 0 0 0 0 0 5 5 5 2 0 4 89 66 7 5 3 0
100 100 100 100 100 100 13 5 1 0 3 5 5 5 5 5 5 8 47 4 0 0 0 0 4 3 1 0 0 0 5 5 18 68 98 5 2 4
100 100 100 100 100 63 5 3 0 3 5 5 5 8 20 9 65 50 5 3 3 3 4 5 5 1 3 4 0 0 0 4 16 94 74 85 5 5
100 100 100 100 99 5 5 5 5 5 5 5 5 12 6 67 5 5 6 80 91 5 82 5 5 5 5 5 5 0 0 0 65 97 52 86 76 5
100 100 81 10 5 5 5 31 5 5 4 5 5 10 75 4 58 51 83 95 99 22 66 84 5 5 5 5 4 5 5 5 89 100 100 100 100 16
62 100 96 7 5 5 5 89 42 5 4 1 5 5 4 70 99 100 100 92 38 5 5 91 86 5 5 5 5 15 5 5 56 100 80 57 100 7
93 100 76 5 5 5 69 100 96 8 5 2 5 5 5 5 44 97 41 96 87 73 96 97 7 20 5 5 5 9 29 6 14 92 100 100 99 5
48 74 5 5 5 5 38 89 94 79 22 5 0 1 0 1 5 13 99 100 100 69 53 78 11 90 82 9 24 5 11 66 99 63 100 99 50 54
5 5 89 5 4 5 25 55 73 100 89 5 5 5 5 5 1 5 5 86 95 99 19 100 71 100 100 56 65 9 99 98 89 100 100 53 98 67
70 46 100 32 5 14 88 100 92 91 84 11 5 5 5 5 5 5 5 5 64 91 6 91 100 100 100 96 58 30 99 100 100 100 100 100 64 100
5 6 27 54 5 12 5 27 89 97 66 65 51 5 5 5 5 5 5 5 5 5 9 39 93 100 100 100 91 88 99 99 100 100 100 72 96 100
92 92 93 82 88 24 76 70 96 93 100 100 100 64 22 5 5 5 5 5 58 42 47 78 100 86 99 100 100 98 100 100 100 100 66 94 100 100
95 100 99 100 89 47 59 60 94 100 100 100 100 75 30 48 18 5 5 5 15 87 80 77 84 79 100 100 91 96 100 100 99 96 26 95 100 100
100 82 99 100 100 100 96 82 84 100 100 100 100 99 52 69 59 5 5 5 5 62 100 82 87 98 78 99 77 97 100 100 99 71 100 100 100 100
98 73 99 100 100 100 100 88 98 96 100 100 100 100 71 60 63 45 28 5 5 7 98 97 100 100 100 100 88 98 100 100 97 89 100 100 100 89
100 96 100 100 100 100 100 96 100 100 100 100 100 100 100 89 69 57 31 80 13 5 28 98 100 98 100 100 100 99 100 100 98 98 100 100 100 98
96 100 74 99 100 100 100 93 80 100 100 100 100 100 99 89 66 48 73 63 58 5 5 50 100 100 100 100 100 100 100 100 100 98 97 88 96 100
100 100 99 91 100 100 100 100 96 85 92 100 100 88 95 66 60 57 70 97 56 60 5 5 69 100 100 100 100 100 100 100 100 100 100 91 92 80
83 100 100 100 100 100 100 100 100 100 92 100 100 83 90 65 65 86 80 81 52 5 5 5 17 61 97 99 100 100 100 100 100 100 100 100 100 100